TUBIN
1 48900U 21059X   25245.62220336  .00113152  00000-0  98958-3 0  9995
2 48900  97.6777  62.2615 0002582 266.8675  93.2290 15.68559552233335
LEDSAT
1 49069U 21073D   25245.49805391  .00249768  00000-0  15570-2 0  9994
2 49069  97.3795 331.3531 0005549 142.0558 218.1099 15.76189475224738
CUTE
1 49263U 21088D   25245.45178280  .00045418  00000-0  78528-3 0  9991
2 49263  97.4450 324.3659 0004917 284.8998  75.1709 15.50821276217563
TeikyoSat 4
1 49396U 21102B   25245.56337849  .00004336  00000-0  28554-3 0  9993
2 49396  97.4055 280.9142 0011977 193.9411 166.1489 15.07972792209355
Z-Sat
1 49399U 21102E   25245.57327156  .00009024  00000-0  48363-3 0  9996
2 49399  97.3748 284.5598 0018437 163.9918 196.1901 15.15065221209843
KOSEN 1
1 49402U 21102H   25245.55027476  .00015192  00000-0  67795-3 0  9994
2 49402  97.3639 288.6128 0016776 137.6848 222.5685 15.21345180210202
HO-113
1 50466U 21131B   25245.62059385  .00001180  00000-0  38160-3 0  9996
2 50466  98.5088 334.5553 0003269 229.7187 130.3716 14.40905573193692
SNUGLITE 2
1 52899U 22065F   25245.34910582  .00003100  00000-0  60826-3 0  9997
2 52899  98.1800  26.5596 0007149 198.9980 161.0956 14.63403211168883
UmKA 1 (RS40S)
1 57172U 23091G   25245.56875296  .00013627  00000-0  70522-3 0  9991
2 57172  97.5510 300.5203 0014977  45.6941 314.5517 15.16251777120350
CubeBel-2 (EU11S)
1 57175U 23091K   25245.55967708  .00020575  00000-0  93287-3 0  9996
2 57175  97.5508 302.2060 0012687  52.2908 307.9476 15.20793399120461
ENSO
1 58470U 23185J   25245.60015016  .00173569  00000-0  16009-2 0  9999
2 58470  97.3646 324.0093 0005430 140.3284 219.8375 15.67045570 98299
EIRSAT-1
1 58472U 23185L   25245.15735677  .02178344  59495-2  17064-2 0  9997
2 58472  97.3382 328.0167 0009892 260.7372  99.2797 16.16170578 98521
SONATE-2
1 59112U 24043Q   25245.32653583  .00042385  00000-0  11122-2 0  9995
2 59112  97.5228  18.4077 0010618 167.6095 192.5413 15.38467969 83352
MO-122
1 60209U 24125G   25245.51175099  .00039627  00000-0  10192-2 0  9998
2 60209  97.2705  96.3022 0017342 186.1247 173.9790 15.39000778 65004
GRBBeta
1 60237U 24128C   25245.43063878  .00011096  00000-0  79949-3 0  9990
2 60237  61.9911 143.5677 0056564  75.8519 284.8848 15.03325049 62957
Curium One
1 60242U 24128H   25245.11586265  .00019274  00000-0  12694-2 0  9990
2 60242  61.9807 141.6219 0056363  72.5631 288.1612 15.06300784 62963
ROBUSTA-3A
1 60243U 24128J   25245.41168322  .00020067  00000-0  13405-2 0  9997
2 60243  61.9881 141.7078 0055888  70.1101 290.6002 15.05781858 62995
CatSat
1 60246U 24125J   25245.51358753  .00040080  00000-0  12345-2 0  9996
2 60246  97.2520  94.5134 0041382 149.3658 211.0013 15.32658090 62987
HYPERVIEW-1G (RS66S)
1 61772U 24199AP  25245.57064716  .00046881  00000-0  12126-2 0  9993
2 61772  97.3402 114.3828 0010702 242.0358 117.9805 15.38887173 90013
AO-123
1 61781U 24199AY  25245.60063280  .00014624  00000-0  51321-3 0  9993
2 61781  97.3423 112.2721 0013626 254.3200 105.6537 15.29434131 89875
ZIMSAT 2
1 61783U 24199BA  25245.58969159  .00093359  00000-0  18185-2 0  9994
2 61783  97.3360 115.8176 0009691 230.4743 129.5651 15.47165088 93266
HADES-R (SO-124)
1 62690U 25009CK  25244.74798207  .00090074  00000-0  26098-2 0  9997
2 62690  97.4033 325.5285 0003529 159.8803 200.2580 15.35205691 35039
HYDRA-T
1 62692U 25009CM  25245.49734163  .00102515  00000-0  29121-2 0  9997
2 62692  97.4031 326.3576 0003199 152.1946 207.9470 15.35773120 35150
JINJUSat 1B
1 63210U 25052A   25245.43759856  .00027695  00000-0  11970-2 0  9990
2 63210  97.4290 138.5287 0005444  48.6744 311.4960 15.22425011 26150
NUSHSAT 1
1 63211U 25052B   25244.95485793  .00025399  00000-0  10854-2 0  9992
2 63211  97.4276 138.0813 0005651  54.4171 305.7591 15.22829970 26084
TEVEL2-4
1 63213U 25052D   25245.44707247  .00030108  00000-0  12989-2 0  9995
2 63213  97.4196 138.3091 0005180  67.1764 293.0019 15.22472161 26152
TEVEL2-5
1 63214U 25052E   25245.38338586  .00029456  00000-0  12724-2 0  9996
2 63214  97.4196 138.2423 0005224  66.8757 293.3030 15.22434027 26142
TEVEL2-6
1 63215U 25052F   25245.58493170  .00028829  00000-0  12467-2 0  9997
2 63215  97.4200 138.4338 0005228  67.3885 292.7903 15.22398382 26176
TEVEL2-1
1 63217U 25052H   25244.95143383  .00021735  00000-0  94930-3 0  9992
2 63217  97.4171 137.6979 0005713  76.9155 283.2719 15.22118439 26074
TEVEL2-3
1 63218U 25052J   25245.60895524  .00026030  00000-0  11343-2 0  9996
2 63218  97.4173 138.3481 0005682  76.0702 284.1166 15.22159469 26172
TEVEL2-2
1 63219U 25052K   25244.95211546  .00022027  00000-0  96208-3 0  9996
2 63219  97.4173 137.6981 0005727  77.3419 282.8457 15.22115012 26072
TEVEL2-9
1 63237U 25052AD  25244.95455910  .00021501  00000-0  97427-3 0  9991
2 63237  97.4239 137.5333 0010150  83.4560 276.7830 15.20829368 26055
TEVEL2-7
1 63238U 25052AE  25244.96079121  .00021245  00000-0  96508-3 0  9993
2 63238  97.4240 137.5291 0010189  83.2073 277.0321 15.20745851 26053
TEVEL2-8
1 63239U 25052AF  25244.96453906  .00021755  00000-0  98895-3 0  9998
2 63239  97.4235 137.5223 0010220  83.7034 276.5365 15.20715848 26056
HYDRA-W
1 63490U 25052BL  25245.44294757  .00077096  00000-0  28225-2 0  9996
2 63490  97.4180 138.8984 0013578  78.8784 281.3981 15.27643881 26195
HADES-ICM (SO-125)
1 63492U 25052BN  25244.70199394  .00045964  00000-0  17325-2 0  9995
2 63492  97.4189 138.0696 0013909  83.8474 276.4349 15.26832832 26073
